Theta_e
305 305 305 306 306 305 305 305 296 308 309 298 297 292 294 296 296 299 295 295 292 290 291 289 290 290 294 299 298 292 297 291 286 289 295 300 298 296 295 289 287 289 288 291
305 305 305 305 306 305 303 300 299 307 306 290 292 296 295 297 296 295 294 292 293 293 290 286 291 292 297 298 296 292 294 290 282 286 292 298 295 297 297 299 296 289 284 291
304 304 304 305 306 305 305 301 294 298 300 298 293 292 294 293 298 295 295 293 295 292 290 292 288 290 295 297 296 299 297 291 287 283 287 290 292 295 297 295 290 291 290 294
303 303 304 305 305 305 305 299 295 297 290 292 293 295 295 292 292 296 297 293 292 289 285 287 288 292 293 294 296 296 296 288 292 294 295 295 294 294 295 294 295 292 295 296
303 303 303 304 305 305 303 295 293 295 292 294 294 295 293 291 292 293 292 289 291 290 286 287 285 289 288 288 292 292 293 288 291 290 296 296 293 296 296 296 296 296 295 295
303 303 303 303 305 305 301 302 299 293 291 293 292 293 292 293 294 295 296 293 291 290 292 294 295 295 294 292 289 288 290 290 288 286 294 292 289 294 296 297 299 298 293 297
302 302 302 302 303 304 303 304 301 293 287 290 291 292 294 293 294 292 295 296 291 295 301 301 299 299 297 295 293 292 287 288 288 286 288 283 297 302 301 298 300 302 302 303
302 302 302 303 303 304 302 303 301 293 286 292 291 294 294 295 296 293 294 296 300 302 298 290 290 294 293 294 295 292 290 287 286 284 284 291 298 299 299 297 297 304 302 302
302 302 302 303 303 304 303 303 308 299 289 291 295 293 295 292 292 293 296 300 303 301 294 289 287 288 290 288 289 295 292 290 286 286 284 285 293 302 307 305 292 305 308 303
301 302 302 303 303 304 304 302 311 300 291 295 298 293 292 295 294 291 296 296 294 297 290 288 288 287 293 287 287 285 286 286 285 286 286 291 300 303 307 293 291 306 306 305
301 301 302 303 303 303 303 302 307 301 295 296 299 301 297 297 297 291 296 291 292 290 287 288 287 287 290 289 289 286 286 286 286 287 284 286 301 305 299 302 309 302 302 301
301 301 302 304 302 303 304 299 306 308 298 297 304 305 306 303 302 297 298 293 289 289 286 289 288 287 290 288 285 291 286 289 287 288 287 297 303 307 309 311 306 301 299 298
301 302 303 303 302 303 303 301 304 303 297 298 300 300 307 311 309 310 297 297 294 291 294 288 288 285 288 286 286 288 289 292 290 291 292 298 304 305 310 309 305 302 300 298
301 302 303 302 302 304 304 303 304 304 297 292 296 306 304 310 310 310 308 303 298 298 296 288 288 287 292 289 289 286 287 289 289 289 293 297 300 300 301 302 301 298 297 295
301 303 302 302 303 304 304 305 305 310 299 292 294 302 307 309 310 308 309 305 300 296 292 290 288 292 293 295 291 287 287 287 287 288 294 293 295 298 299 296 295 295 294 293
302 303 302 303 303 304 302 300 307 308 307 296 288 302 304 308 310 307 305 303 304 299 295 295 298 300 297 291 287 287 288 293 294 291 294 293 294 296 297 295 295 295 295 295
301 302 302 303 304 304 299 299 303 305 308 295 290 295 304 308 308 306 303 306 305 303 301 297 297 297 296 290 284 286 290 294 295 297 295 291 293 291 294 295 296 297 297 297
301 302 302 304 305 304 302 308 308 307 303 297 291 295 299 308 301 301 306 301 304 303 300 300 297 297 295 286 287 288 291 294 295 295 295 294 295 295 294 295 295 294 294 296
302 302 304 306 303 302 305 307 306 308 302 294 295 292 293 306 301 303 304 303 297 305 296 295 297 292 288 294 293 292 292 291 294 297 296 295 295 295 295 295 295 294 294 297
304 305 304 298 304 305 308 305 300 298 300 300 295 301 295 301 301 298 298 302 297 294 297 301 292 291 298 300 300 300 298 297 300 298 297 298 298 298 298 297 298 297 296 296
305 300 297 304 309 304 300 295 296 298 294 298 300 301 296 303 297 297 299 296 298 292 295 294 290 289 295 301 302 303 303 301 299 298 299 299 298 297 297 297 297 297 297 297
298 297 301 302 300 298 294 293 297 295 294 301 298 298 301 302 305 299 300 295 297 291 301 296 288 293 300 302 301 302 302 301 299 298 296 296 297 297 297 297 296 297 297 298
303 300 294 297 297 288 289 288 293 294 299 299 300 298 301 303 303 299 297 293 293 302 296 290 290 298 302 302 300 300 301 301 299 298 298 297 296 297 296 296 297 298 298 298
295 294 288 291 291 293 294 294 294 299 300 300 300 299 299 301 297 298 293 296 298 291 289 288 294 299 303 303 302 300 298 298 298 298 298 297 296 296 296 296 296 296 296 297
293 295 287 291 297 299 298 299 299 302 302 301 300 301 300 297 296 297 295 291 289 291 290 293 299 301 303 304 304 302 300 299 298 298 297 297 297 297 296 297 297 296 296 297
295 296 293 296 296 297 299 299 299 305 303 303 303 298 295 295 296 292 290 290 288 293 298 302 303 302 305 304 304 305 304 303 301 299 299 298 297 297 297 298 297 296 296 295
294 295 298 298 298 298 298 301 302 305 301 298 300 294 292 298 294 292 295 292 297 302 303 304 305 306 304 307 306 306 306 305 304 301 300 300 300 299 298 296 297 297 297 296
Wind_Speed
21 22 23 25 28 29 15 8 7 9 12 7 7 10 17 17 19 17 16 9 13 15 23 25 26 20 22 21 19 17 5 4 9 17 16 13 18 24 19 12 16 10 6 8
20 21 22 24 27 25 12 9 11 6 9 8 11 15 16 18 17 18 19 9 18 24 23 14 15 23 25 25 16 10 9 3 8 7 5 13 9 24 20 23 4 14 6 11
18 19 20 22 25 29 12 7 7 6 8 12 15 16 20 19 18 16 14 22 21 15 11 21 17 29 11 21 23 20 12 12 16 11 11 6 10 9 14 12 8 13 13 19
19 20 20 21 23 28 11 6 7 8 8 13 17 20 21 25 24 16 19 8 13 21 12 23 21 20 27 19 12 7 4 8 17 18 19 12 17 12 16 20 19 14 6 11
18 19 19 19 20 27 6 8 5 7 14 15 18 16 21 21 20 23 13 8 19 16 16 18 25 16 6 5 11 7 5 7 15 17 15 8 13 16 17 22 18 20 10 7
16 17 18 18 17 16 3 3 3 2 10 17 15 14 22 26 22 11 19 20 21 16 17 19 25 22 21 15 7 7 7 5 5 7 14 18 12 22 20 18 16 12 4 2
17 17 17 17 16 14 6 6 4 4 10 15 16 27 24 23 22 19 23 20 10 15 26 25 20 18 15 14 14 12 6 6 4 8 9 4 11 13 16 18 16 9 11 4
16 17 17 16 16 16 9 10 3 2 8 14 24 23 24 25 22 19 22 17 20 22 18 7 9 2 3 10 7 13 12 4 4 4 8 11 20 9 13 18 12 7 16 6
16 17 17 17 16 15 9 9 7 4 5 6 29 24 24 18 19 19 21 20 17 13 4 4 5 4 8 3 4 9 11 10 4 4 6 5 11 20 8 11 5 6 15 16
16 17 17 17 16 17 10 9 10 3 6 14 15 19 19 14 16 11 18 15 7 11 5 4 4 6 12 6 6 4 2 2 5 4 4 4 10 19 11 5 3 7 19 20
16 17 17 18 16 17 11 9 13 7 5 17 24 20 25 22 16 11 17 7 3 4 6 5 6 5 6 5 3 5 3 4 1 2 3 3 15 10 3 7 16 20 19 25
16 16 17 18 16 17 15 7 10 7 5 16 26 30 30 29 28 14 2 5 3 3 3 2 4 4 4 6 4 10 4 6 3 5 3 12 9 8 13 10 21 22 22 20
16 17 19 17 16 16 14 8 11 7 5 12 11 14 11 11 15 13 5 3 5 4 4 1 3 5 1 5 4 6 9 12 4 2 12 18 20 20 6 20 22 22 20 23
16 18 18 17 16 16 15 9 9 5 3 7 8 18 20 16 12 13 5 6 4 3 3 3 3 4 1 2 2 4 4 11 10 5 8 13 21 19 20 24 24 23 20 21
17 19 18 18 17 17 13 10 9 5 4 6 13 25 16 15 7 13 9 2 4 2 3 3 3 3 3 1 3 5 8 6 5 5 8 10 13 17 22 22 20 21 23 23
19 19 19 18 18 16 6 4 5 3 2 5 6 11 13 15 8 13 16 6 1 1 1 2 2 5 2 4 4 7 7 11 14 5 13 17 20 19 18 23 20 21 23 22
19 20 20 19 17 8 5 3 3 8 2 2 5 7 2 8 7 6 5 6 3 1 2 4 3 3 4 4 5 8 10 13 12 9 10 17 12 12 16 21 21 22 20 17
21 22 21 19 15 9 6 4 6 5 3 2 5 6 7 14 8 4 3 4 3 6 4 4 5 4 3 6 5 7 9 13 14 15 16 17 15 16 17 19 18 19 16 15
23 21 23 6 3 2 1 6 5 5 3 4 4 5 6 7 6 4 2 1 2 2 4 5 6 5 8 5 11 12 11 5 3 5 16 19 19 17 16 17 14 14 15 13
24 10 3 2 2 2 11 4 3 4 4 5 6 4 6 8 7 5 5 1 1 1 2 3 6 5 4 5 12 13 14 13 7 12 16 18 20 19 18 16 17 17 14 13
2 3 3 7 6 3 3 4 5 5 4 4 6 6 7 3 5 3 3 3 1 2 0 4 4 5 7 10 10 11 13 14 12 12 14 14 16 17 17 18 17 16 16 14
7 6 6 4 4 4 4 4 4 5 2 2 5 7 8 2 2 1 3 4 3 3 6 4 3 4 9 3 10 10 12 13 17 16 13 12 13 14 16 16 16 16 16 15
1 3 3 4 3 2 3 4 3 5 4 1 8 8 5 2 4 1 2 3 4 3 3 4 1 3 7 5 9 11 11 14 15 15 15 15 15 16 15 15 14 14 14 14
3 3 3 5 5 3 3 4 6 7 6 7 6 7 4 3 3 2 3 4 3 3 4 3 2 2 3 2 9 10 11 12 13 13 14 15 15 14 14 13 12 13 13 13
4 2 4 4 3 4 5 7 6 8 4 6 6 6 4 2 3 3 3 2 2 4 3 3 5 3 4 1 7 11 10 10 10 11 11 13 13 12 13 12 12 12 12 11
4 5 6 6 8 5 5 5 5 4 6 6 6 4 3 1 1 1 3 2 4 1 3 6 7 5 3 4 1 5 9 11 10 10 11 11 11 11 12 11 11 11 11 11
5 5 5 7 6 7 6 5 6 5 6 4 3 4 0 3 1 2 3 3 2 4 3 3 6 8 6 6 5 5 8 9 10 10 10 11 11 11 11 11 11 10 10 10
Wind_Direction
341 342 343 341 338 342 331 297 314 31 340 320 10 351 328 304 309 345 334 316 302 305 302 304 306 307 313 322 350 338 27 292 289 299 305 243 274 264 230 208 211 197 301 279
339 340 342 343 339 345 326 299 305 52 338 5 340 318 325 314 327 356 327 301 319 309 300 307 308 306 321 315 351 337 336 304 309 287 280 230 231 235 248 245 205 233 179 268
338 340 342 343 340 332 328 288 319 347 310 12 344 324 306 321 357 342 325 310 303 309 314 305 300 302 313 329 328 308 293 252 246 260 280 252 274 221 238 183 201 241 200 267
337 339 343 344 342 331 314 346 15 359 308 330 311 291 291 343 336 327 315 307 323 322 298 303 289 319 316 320 308 346 279 260 269 292 292 214 244 264 224 225 219 222 246 281
335 337 342 343 345 334 327 340 357 325 301 308 292 315 350 327 320 333 330 306 305 294 288 287 296 313 299 251 295 322 326 278 320 306 296 313 276 283 276 231 229 233 58 344
329 333 338 342 346 345 322 334 271 278 295 316 324 334 323 322 334 329 321 319 310 304 301 297 285 277 269 248 242 287 299 293 314 282 330 327 289 227 235 201 205 114 215 187
325 330 333 336 336 341 305 296 296 271 290 312 309 319 322 324 318 329 317 321 324 299 305 301 288 258 244 237 234 210 262 280 306 292 319 247 274 164 169 169 110 122 92 48
322 324 327 328 330 326 308 305 282 242 279 313 298 335 320 319 323 325 313 321 315 324 313 318 323 42 291 211 199 205 204 249 277 296 301 286 43 116 158 165 88 91 121 112
318 322 322 323 324 320 309 305 306 265 291 265 330 309 303 326 319 311 312 324 337 324 282 296 296 320 348 28 317 182 191 222 281 325 295 23 342 344 332 99 59 353 192 153
315 317 316 316 321 318 313 292 292 269 271 272 302 308 307 303 306 292 315 347 336 343 329 306 329 326 354 357 342 319 213 215 224 264 289 318 344 333 302 143 188 114 100 118
310 313 313 315 318 314 314 288 291 273 267 296 275 280 304 295 285 292 308 335 64 321 356 342 349 317 342 311 330 314 310 294 71 193 262 22 355 340 37 143 129 101 96 103
311 310 308 313 315 309 310 281 298 299 258 281 293 282 277 265 265 274 261 250 45 282 306 10 308 293 304 324 321 343 28 348 359 33 306 272 309 77 127 129 105 112 107 102
309 307 308 314 311 304 301 290 296 299 270 285 286 290 326 317 233 236 247 182 177 213 187 297 285 279 331 337 30 305 339 10 20 323 347 23 49 47 207 94 99 102 110 114
306 304 310 312 307 305 304 285 289 281 287 283 295 326 315 302 305 271 220 246 169 208 163 190 262 278 336 355 4 14 345 311 324 348 355 42 45 61 72 85 96 103 101 105
304 308 313 311 308 307 299 273 257 232 257 302 307 299 271 301 234 81 53 72 240 160 172 224 242 237 249 203 51 33 344 337 350 12 13 63 55 81 90 94 96 100 104 101
304 311 310 307 308 316 300 310 57 110 204 288 309 332 295 315 55 62 21 332 329 130 234 236 341 356 336 29 57 9 353 12 18 54 62 66 64 73 86 93 98 97 99 99
305 306 303 301 299 287 245 330 329 331 308 269 286 273 244 351 348 51 346 320 317 302 37 24 358 21 40 34 37 4 22 44 35 77 80 68 55 80 79 88 89 92 95 98
302 300 300 297 294 267 257 249 249 248 254 192 271 283 312 24 353 59 8 308 318 21 26 358 351 12 45 67 77 55 44 63 66 77 87 84 91 95 92 89 91 94 102 115
297 298 296 271 221 236 10 137 172 248 253 293 273 306 312 342 358 25 17 274 23 122 43 16 354 15 36 57 146 89 70 58 143 129 128 124 120 114 110 111 119 112 113 113
296 282 232 217 172 325 286 158 213 167 214 225 264 255 278 357 344 20 333 248 306 66 106 104 25 35 333 55 110 140 155 160 161 102 110 114 114 113 107 103 105 104 98 101
245 325 332 337 345 265 241 266 223 161 215 227 256 262 324 325 343 7 323 292 58 40 307 92 32 5 345 335 59 100 120 108 71 43 66 84 95 100 101 104 109 113 114 114
323 294 290 293 262 231 245 244 240 222 254 219 296 337 296 318 218 206 255 299 193 48 182 115 74 305 320 21 79 85 99 94 111 114 100 90 91 99 104 107 107 109 112 113
228 229 233 244 226 278 243 314 336 347 349 224 346 336 301 287 251 198 256 237 334 355 66 74 76 290 295 78 93 91 88 102 108 109 109 104 100 99 106 111 112 113 109 107
259 233 271 247 228 219 285 328 316 317 314 342 318 299 282 309 321 321 355 5 327 20 59 77 132 274 348 39 111 106 102 101 101 102 107 110 114 119 116 113 113 115 117 121
258 238 246 255 292 305 323 296 297 306 327 319 310 290 253 356 337 5 14 33 77 49 91 144 141 167 290 161 108 115 122 117 109 107 107 110 110 110 110 113 118 118 119 120
243 242 251 266 267 299 315 286 313 300 326 300 264 265 322 241 170 209 42 30 47 0 89 142 138 144 187 193 168 141 118 113 114 119 116 118 123 121 120 123 123 122 124 126
219 244 241 257 282 268 298 338 308 353 332 297 300 291 1 283 222 100 56 56 89 122 101 105 142 143 182 196 192 159 124 121 123 124 129 118 120 129 133 130 126 131 132 134